METEOR 2-8 DEB

Satellite information

Favourite Embed

Satellite Type and Status

DEBRISIN ORBIT

Key statistics

Satellite METEOR 2-8 DEB at a glance.

Uptime

15752

Days in orbit

Revolutions

≈ 14.4

Per day

Orbit

LEO

Low Earth Orbit

Inclination

82.5

Latest

Satellite identification and parameters

Extended collection of information and parameters for METEOR 2-8 DEB.

Object identification

Identified? True

Debris? True

Object name: METEOR 2-8 DEB

International designator: 1982-025E

Object number (NORAD): 36320

Object ID (CCSDS): 36320

Country: COMMONWEALTH OF INDEPENDENT STATES (CIS)

Current information (Y/N): Y

RCS size: SMALL

Orbital parameters

Period: 100.162 minutes

Inclination: 82.4749 deg

SMA: 7144.346 km

Apoapsis: 771.393 km

Periapsis: 761.028 km

RAAN: 130.0857 deg

Eccentricy: 0.0007254

Argument of periapsis: 51.531 deg

Mean anomaly: 308.6529 deg

Mean motion: 14.37669541 rev/day

Mean motion (dot): 0.00010421 rev/day2

B* drag term: 0.0034604 1/REarth

Two-line elements (TLE)

Creation date: May 7, 2025, 3:14 a.m.

Reference frame: TEME

Reference center: EARTH

Epoch: May 6, 2025, 6:37 a.m. UTC

TLE line 0: 0 METEOR 2-8 DEB

TLE line 1: 1 36320U 82025E 25126.27572522 .00010421 00000-0 34604-2 0 9996

TLE line 2: 2 36320 82.4749 130.0857 0007254 51.5310 308.6529 14.37669541609607

Live tracking on map

Real-time ground track for satellite METEOR 2-8 DEB.

In-orbit conjunctions

A list of the most updated potential collisions computed for object METEOR 2-8 DEB.

Target Orbit TCA Probability of collision Miss distance Type
CZ-6A DEB LEO 2025-01-18 06:43:50 0.00123105 25.0 (m) DEBRIS
CZ-6A DEB SSO 2025-01-16 19:29:49 0.0001307063 154.0 (m) DEBRIS
FENGYUN 1C DEB SSO 2024-09-26 10:34:28 0.000264342 693.0 (m) DEBRIS
CZ-6A DEB LEO 2024-09-22 12:23:05 0.0001637317 978.0 (m) DEBRIS

Associated space launch

Second generation soviet meteorological satellite

METEOR 2-8 DEB was lifted into orbit during the mission ‘Tsiklon-3 | Meteor-2 8’, on board a Tsiklon-3 space rocket.

The launch took place on March 25, 1982, 9:50 a.m. from 32/1.

For more information about the launch, click the button.

Launch to space Tsiklon-3 | Meteor-2 8
Tsiklon-3 | Meteor-2 8

Agency: N/A

Status: Launch Successful

Launch date: March 25, 1982, 9:50 a.m. UTC

Rocket: Tsiklon-3

Launch pad: 32/1

Location: Plesetsk Cosmodrome, Russian Federation

...

Latest news about this satellite

There are no fresh news available about this satellite. Check back as we update our databases every day.


Newsletter sign-up

Weekly statistics, charts and insights to help you stay on top of the space industry.